EW9451 Weather Reports


time (UTC)temp
F
wind
direction
speed
knots
gust
knots
rain 1hr
in
rain 24hr
in
rain mn
in
humidity
%
barometer
mb
20260508030022 40 213 0.0 0.0 0.00 0.00 0.00 68 1002.8
20260508025521 40 213 0.0 0.0 0.00 0.00 0.00 69 1002.8
20260508025020 40 213 0.0 0.0 0.00 0.00 0.00 69 1002.8
20260508024522 40 213 0.0 0.0 0.00 0.00 0.00 68 1002.8
20260508024020 40 213 0.0 1.7 0.00 0.00 0.00 69 1002.8
20260508023520 40 213 0.0 1.7 0.00 0.00 0.00 69 1002.8
20260508023035 40 232 0.9 1.7 0.00 0.00 0.00 69 1002.9
20260508022520 40 232 0.0 1.7 0.00 0.00 0.00 68 1002.9
20260508022020 40 232 0.9 1.7 0.00 0.00 0.00 68 1002.8
20260508021521 40 232 0.0 1.7 0.00 0.00 0.00 68 1002.9
20260508021019 40 232 0.9 1.7 0.00 0.00 0.00 67 1002.8
20260508020521 40 301 0.0 0.9 0.00 0.00 0.00 66 1002.8
20260508020019 41 301 0.0 0.9 0.00 0.00 0.00 66 1002.8
20260508015519 41 301 0.0 0.0 0.00 0.00 0.00 68 1002.8
20260508015019 41 301 0.0 0.0 0.00 0.00 0.00 65 1002.8
20260508014519 41 301 0.0 0.9 0.00 0.00 0.00 61 1002.8
20260508014019 41 301 0.0 0.9 0.00 0.00 0.00 61 1002.7
20260508013519 41 301 0.0 0.9 0.00 0.00 0.00 63 1002.7
20260508013020 41 301 0.0 0.9 0.00 0.00 0.00 64 1002.7
20260508012518 41 301 0.0 1.7 0.00 0.00 0.00 63 1002.8
20260508012018 42 301 0.0 1.7 0.00 0.00 0.00 62 1002.7
20260508011518 42 301 0.0 1.7 0.00 0.00 0.00 61 1002.7
20260508011018 42 301 0.0 1.7 0.00 0.00 0.00 60 1002.7
20260508010517 42 301 0.0 1.7 0.00 0.01 0.00 59 1002.7
20260508010034 43 301 0.0 0.9 0.00 0.01 0.00 59 1002.7
20260508005516 44 301 0.0 1.7 0.00 0.01 0.00 57 1002.6
20260508005017 44 301 0.0 1.7 0.00 0.01 0.00 57 1002.6
20260508004522 44 320 0.0 0.9 0.00 0.01 0.00 55 1002.6
20260508004016 44 320 0.0 1.7 0.00 0.01 0.00 55 1002.5
20260508003519 44 323 0.0 1.7 0.00 0.01 0.00 54 1002.4
20260508003020 45 333 0.0 1.7 0.00 0.01 0.00 56 1002.3
20260508002515 45 319 0.0 2.6 0.00 0.01 0.00 56 1002.3
20260508002018 45 322 0.9 6.1 0.00 0.01 0.00 56 1002.2
20260508001526 46 296 1.7 6.1 0.00 0.01 0.00 52 1002.3
20260508001014 46 339 0.0 1.7 0.00 0.01 0.00 55 1002.3
20260508000514 46 339 0.0 1.7 0.00 0.02 0.00 53 1002.2
20260508000019 47 340 0.0 2.6 0.00 0.02 0.00 53 1002.2
20260507235514 47 286 0.0 2.6 0.00 0.02 0.00 55 1002.1
20260507235014 47 319 0.0 2.6 0.00 0.02 0.00 54 1002.1
20260507234517 47 327 0.0 2.6 0.00 0.02 0.00 53 1002.1
20260507234013 47 337 0.9 4.3 0.00 0.02 0.00 49 1002.1
20260507233513 48 323 0.9 7.8 0.00 0.02 0.00 50 1002.1
20260507233013 48 310 3.5 7.8 0.00 0.02 0.00 51 1002.1
20260507232513 48 294 0.9 4.3 0.00 0.02 0.00 53 1002.1
20260507232017 48 343 1.7 4.3 0.00 0.02 0.00 50 1002.1
20260507231513 48 326 0.9 7.0 0.00 0.02 0.00 51 1002.1
20260507231013 48 296 2.6 7.0 0.00 0.02 0.00 51 1002.1
20260507230512 48 276 2.6 7.0 0.00 0.02 0.00 52 1002.1
20260507230013 49 311 2.6 7.0 0.00 0.02 0.00 52 1002.2
20260507225511 50 297 1.7 5.2 0.00 0.02 0.00 49 1002.2
20260507225011 50 287 2.6 8.7 0.00 0.02 0.00 48 1002.2
20260507224511 49 292 4.3 8.7 0.00 0.02 0.00 45 1002.1
20260507224009 49 306 2.6 9.6 0.00 0.02 0.00 46 1002.1
20260507223508 49 293 1.7 10.4 0.00 0.02 0.00 50 1002.2
20260507223010 49 274 3.5 10.4 0.00 0.02 0.00 48 1002.1
20260507222507 49 334 2.6 7.0 0.00 0.02 0.00 49 1002.1
20260507222008 48 292 2.6 5.2 0.00 0.02 0.00 52 1002.2
20260507221508 48 350 1.7 7.0 0.00 0.02 0.00 51 1002.2
20260507221008 48 309 2.6 7.8 0.00 0.02 0.00 49 1002.1
20260507220511 49 293 2.6 10.4 0.00 0.02 0.00 53 1002.1
20260507220007 49 312 1.7 10.4 0.00 0.02 0.00 48 1002.3
20260507215507 49 313 3.5 12.2 0.00 0.02 0.00 46 1002.2
20260507215007 49 342 4.3 12.2 0.00 0.02 0.00 45 1002.2
20260507214506 49 332 3.5 12.2 0.00 0.02 0.00 47 1002.2
20260507214006 49 311 4.3 12.2 0.00 0.02 0.00 46 1002.1
20260507213506 49 327 2.6 7.8 0.00 0.02 0.00 48 1002.2
20260507213017 50 284 2.6 11.3 0.00 0.02 0.00 48 1002.1
20260507212505 50 279 4.3 11.3 0.00 0.02 0.00 48 1002.1
20260507212006 50 291 4.3 12.2 0.00 0.02 0.00 44 1002.0
20260507211505 50 325 5.2 13.0 0.00 0.02 0.00 44 1002.0
20260507211004 51 320 7.0 13.0 0.00 0.02 0.00 42 1002.0
20260507210507 53 295 5.2 10.4 0.00 0.07 0.00 44 1002.0
20260507210019 52 305 5.2 10.4 0.00 0.07 0.00 42 1002.0
20260507205504 52 292 4.3 9.6 0.00 0.07 0.00 46 1001.8
20260507205004 51 297 3.5 9.6 0.00 0.07 0.00 45 1001.8
20260507204504 51 340 4.3 13.0 0.00 0.07 0.00 43 1001.8
20260507204004 51 259 5.2 13.0 0.00 0.07 0.00 43 1001.8
20260507203504 52 274 2.6 13.0 0.00 0.07 0.00 48 1001.8
20260507203003 52 258 7.0 13.0 0.00 0.07 0.00 46 1001.8
20260507202502 53 327 6.1 11.3 0.00 0.07 0.00 42 1001.7
20260507202003 53 298 4.3 10.4 0.00 0.07 0.00 41 1001.7
20260507201508 54 314 3.5 10.4 0.00 0.07 0.00 43 1001.7
20260507201002 53 301 5.2 10.4 0.00 0.07 0.00 44 1001.7
20260507200502 52 329 3.5 14.8 0.00 0.08 0.00 46 1001.7
20260507200008 52 344 6.1 14.8 0.00 0.08 0.00 45 1001.8
20260507195501 53 312 7.0 14.8 0.00 0.08 0.00 41 1001.7
20260507195003 53 314 6.1 14.8 0.00 0.08 0.00 48 1001.7
20260507194502 53 253 6.1 12.2 0.00 0.08 0.00 44 1001.7
20260507194104 53 261 7.0 12.2 0.00 0.08 0.00 47 1001.7
20260507194001 53 302 7.0 12.2 0.00 0.08 0.00 44 1001.8
20260507193600 53 297 4.3 13.0 0.00 0.08 0.00 42 1001.7
20260507193132 53 292 6.1 13.0 0.00 0.08 0.00 47 1001.8
20260507192559 53 325 3.5 13.9 0.00 0.08 0.00 44 1001.8
20260507192102 54 254 4.3 13.9 0.00 0.08 0.00 45 1001.7
20260507191608 53 293 6.1 9.6 0.00 0.08 0.00 47 1001.8
20260507191100 53 309 4.3 11.3 0.00 0.08 0.00 43 1001.7
20260507190558 53 319 4.3 12.2 0.00 0.08 0.00 45 1001.8
20260507190058 53 258 4.3 12.2 0.00 0.11 0.00 48 1001.9
20260507185557 53 355 6.1 12.2 0.00 0.11 0.00 44 1001.8
20260507185057 53 269 6.1 12.2 0.00 0.11 0.00 43 1001.8
20260507184559 54 301 7.0 12.2 0.00 0.11 0.00 44 1001.9
20260507184100 53 288 5.2 12.2 0.00 0.11 0.00 44 1001.9
20260507183555 52 360 5.2 14.8 0.00 0.11 0.00 47 1001.9
20260507183102 53 319 7.8 14.8 0.00 0.11 0.00 42 1001.8
20260507182555 53 319 2.6 12.2 0.00 0.11 0.00 47 1001.9
20260507182054 53 298 6.1 14.8 0.00 0.11 0.00 44 1001.9
20260507181554 52 346 7.0 14.8 0.00 0.11 0.00 51 1001.9
20260507181054 52 321 5.2 14.8 0.00 0.11 0.00 44 1001.9
20260507180554 52 310 5.2 14.8 0.00 0.11 0.00 50 1001.9
20260507180056 52 355 8.7 14.8 0.00 0.15 0.00 45 1001.8
20260507175559 52 302 7.0 14.8 0.00 0.15 0.00 46 1001.8
20260507175054 53 311 6.1 11.3 0.00 0.15 0.00 49 1001.9
20260507174600 53 266 4.3 11.3 0.00 0.15 0.00 48 1001.8
20260507174056 52 304 3.5 14.8 0.00 0.15 0.00 50 1001.8
20260507173551 51 346 4.3 14.8 0.00 0.15 0.00 56 1001.8
20260507173128 51 260 6.1 12.2 0.00 0.15 0.00 52 1001.9
20260507172554 52 288 7.8 12.2 0.00 0.15 0.00 50 1001.9
20260507172051 52 321 6.1 11.3 0.00 0.15 0.00 47 1001.9
20260507171551 52 261 4.3 11.3 0.00 0.15 0.00 48 1002.0
20260507171049 52 337 5.2 14.8 0.00 0.15 0.00 52 1001.9
20260507170551 51 290 5.2 14.8 0.00 0.15 0.00 50 1001.9
20260507170050 51 280 6.1 14.8 0.00 0.21 0.00 50 1001.9
20260507165547 51 265 8.7 14.8 0.00 0.21 0.00 50 1002.2
20260507165049 51 275 7.0 12.2 0.00 0.21 0.00 52 1002.1
20260507164553 50 322 4.3 11.3 0.00 0.21 0.00 51 1002.1
20260507164044 50 19 5.2 11.3 0.00 0.21 0.00 51 1002.1
20260507163544 49 304 4.3 11.3 0.00 0.21 0.00 52 1002.1
20260507163043 48 260 3.5 12.2 0.00 0.21 0.00 59 1002.4
20260507162543 48 343 6.1 12.2 0.00 0.21 0.00 59 1002.5
20260507162042 49 313 3.5 13.9 0.00 0.21 0.00 55 1002.6
20260507161549 49 325 6.1 11.3 0.00 0.21 0.00 53 1002.7
20260507161042 49 323 5.2 11.3 0.00 0.21 0.00 56 1002.9
20260507160542 49 323 5.2 11.3 0.00 0.33 0.00 61 1002.9
20260507160059 49 325 5.2 11.3 0.00 0.33 0.00 61 1002.9
20260507155538 48 306 4.3 11.3 0.00 0.33 0.00 56 1002.9
20260507155040 48 342 4.3 8.7 0.00 0.33 0.00 56 1002.9
20260507154538 48 285 3.5 12.2 0.00 0.33 0.00 55 1003.0
20260507154037 48 342 5.2 12.2 0.00 0.33 0.00 60 1003.0
20260507153537 47 311 2.6 12.2 0.00 0.33 0.00 58 1002.9
20260507153037 48 276 6.1 13.9 0.00 0.33 0.00 58 1003.0
20260507152537 47 324 6.1 13.9 0.00 0.33 0.00 60 1003.1
20260507152036 47 310 5.2 11.3 0.00 0.33 0.00 60 1003.2
20260507151534 47 302 5.2 11.3 0.00 0.33 0.00 57 1003.2
20260507151034 47 313 4.3 9.6 0.00 0.33 0.00 68 1003.3
20260507150536 46 326 4.3 13.0 0.00 0.40 0.00 63 1003.2
20260507150034 46 315 3.5 13.0 0.00 0.40 0.00 61 1003.2
20260507145533 45 239 7.0 13.0 0.00 0.40 0.00 59 1003.0
20260507145033 46 321 5.2 13.0 0.00 0.40 0.00 59 1003.1
20260507144544 47 310 5.2 11.3 0.00 0.40 0.00 66 1003.0
20260507144036 46 313 3.5 11.3 0.00 0.40 0.00 66 1003.2
20260507143530 46 259 4.3 11.3 0.00 0.40 0.00 64 1003.1
20260507143033 46 280 2.6 11.3 0.00 0.40 0.00 67 1003.2
20260507142530 46 323 3.5 10.4 0.00 0.40 0.00 69 1003.2
20260507142027 45 315 5.2 11.3 0.00 0.40 0.00 67 1003.2
20260507141529 45 328 6.1 11.3 0.00 0.40 0.00 76 1003.0
20260507141027 44 341 3.5 13.9 0.00 0.40 0.00 69 1003.2
20260507140526 44 360 4.3 13.9 0.00 0.41 0.00 69 1003.1
20260507140027 44 324 1.7 7.8 0.00 0.41 0.00 72 1003.3
20260507135523 44 351 2.6 8.7 0.00 0.41 0.00 71 1003.3
20260507135023 44 360 3.5 8.7 0.00 0.41 0.00 69 1003.4
20260507134523 44 311 1.7 8.7 0.00 0.41 0.00 74 1003.3
20260507134024 43 240 3.5 11.3 0.00 0.41 0.00 73 1003.2
20260507133521 42 282 4.3 11.3 0.00 0.41 0.00 73 1003.3
20260507133021 42 296 6.1 13.9 0.00 0.41 0.00 76 1003.3
20260507132519 42 319 6.1 13.9 0.00 0.41 0.00 72 1003.4
20260507132018 42 265 7.0 13.0 0.00 0.41 0.00 76 1003.2
20260507131517 43 315 4.3 10.4 0.00 0.41 0.00 85 1003.2
20260507131018 42 281 4.3 10.4 0.00 0.41 0.00 82 1003.1
20260507130516 42 360 2.6 12.2 0.00 0.46 0.00 79 1003.1
20260507130027 42 292 3.5 12.2 0.00 0.46 0.00 86 1003.2
20260507125513 42 194 4.3 12.2 0.00 0.46 0.00 83 1003.3
20260507125012 42 346 5.2 12.2 0.00 0.46 0.00 84 1003.1
20260507124516 42 348 4.3 8.7 0.00 0.46 0.00 86 1003.2
20260507124010 41 342 0.9 5.2 0.00 0.46 0.00 89 1003.1
20260507123511 41 305 1.7 7.0 0.00 0.46 0.00 89 1003.2
20260507123009 41 319 2.6 7.0 0.00 0.46 0.00 90 1003.2
20260507122507 41 317 2.6 10.4 0.00 0.46 0.00 90 1003.2
20260507122008 41 316 3.5 10.4 0.00 0.46 0.00 91 1003.3
20260507121508 40 302 2.6 7.0 0.00 0.46 0.00 93 1003.1
20260507121006 40 302 0.0 4.3 0.00 0.46 0.00 95 1003.2
20260507120505 40 321 1.7 7.8 0.00 0.52 0.00 94 1003.1
20260507120011 40 298 3.5 7.8 0.00 0.52 0.00 95 1003.1
20260507115506 41 307 1.7 5.2 0.00 0.52 0.00 97 1003.1
20260507115006 41 322 1.7 5.2 0.00 0.52 0.00 97 1003.0
20260507114503 40 339 2.6 5.2 0.00 0.52 0.00 97 1002.8
20260507114003 40 148 0.0 2.6 0.00 0.52 0.00 97 1002.7
20260507113504 40 296 1.7 4.3 0.00 0.52 0.00 97 1002.7
20260507113004 41 292 1.7 5.2 0.00 0.52 0.00 98 1002.6
20260507112505 41 193 0.0 6.1 0.00 0.52 0.00 98 1002.5
20260507112005 41 44 1.7 6.1 0.00 0.52 0.00 98 1002.7
20260507111507 41 336 0.9 4.3 0.00 0.52 0.00 98 1002.7
20260507111001 41 334 1.7 4.3 0.00 0.52 0.00 98 1002.8
20260507110501 41 180 0.0 6.1 0.00 0.54 0.00 98 1002.7
20260507110002 41 252 0.9 6.1 0.00 0.54 0.00 98 1002.8
20260507105600 40 263 2.6 5.2 0.00 0.54 0.00 98 1002.7
20260507105100 40 174 0.0 2.6 0.00 0.54 0.00 98 1002.6
20260507104602 40 213 0.0 1.7 0.00 0.54 0.00 98 1002.5
20260507104100 40 309 0.0 1.7 0.00 0.54 0.00 98 1002.4
20260507103602 40 194 0.0 1.7 0.00 0.54 0.00 98 1002.3
20260507103059 40 192 0.0 1.7 0.00 0.54 0.00 98 1002.2
20260507102600 40 203 0.0 1.7 0.00 0.54 0.00 98 1002.1
20260507102058 40 203 0.0 1.7 0.00 0.54 0.00 98 1002.2
20260507101634 40 203 0.0 1.7 0.00 0.54 0.00 98 1002.2
20260507101058 40 203 0.0 0.9 0.00 0.54 0.00 98 1002.2
20260507100558 40 203 0.0 0.9 0.00 0.54 0.00 98 1002.3
20260507100100 40 203 0.0 0.0 0.00 0.57 0.00 98 1002.3
20260507095557 40 203 0.0 0.0 0.00 0.57 0.00 98 1002.3
20260507095056 40 203 0.0 0.0 0.00 0.57 0.00 98 1002.2
20260507094557 40 203 0.0 0.9 0.00 0.57 0.00 98 1002.3
20260507094057 40 203 0.0 0.9 0.00 0.57 0.00 98 1002.2
20260507093557 40 203 0.0 0.9 0.00 0.57 0.00 98 1002.1
20260507093059 40 203 0.0 0.9 0.00 0.57 0.00 98 1002.1
20260507092556 40 203 0.0 0.0 0.00 0.57 0.00 98 1002.0
20260507092058 40 203 0.0 0.9 0.00 0.57 0.00 98 1002.1
20260507091556 40 203 0.0 0.9 0.00 0.57 0.00 98 1002.1
20260507091055 40 203 0.0 0.9 0.00 0.57 0.00 98 1002.1
20260507090555 40 203 0.0 0.9 0.00 0.57 0.00 98 1002.2
20260507090106 40 203 0.0 1.7 0.00 0.60 0.00 98 1002.1
20260507085555 40 203 0.0 1.7 0.00 0.60 0.00 98 1002.1
20260507085054 39 143 0.0 2.6 0.00 0.60 0.00 98 1002.1
20260507084555 39 142 0.9 2.6 0.00 0.60 0.00 98 1002.1
20260507084053 39 136 0.0 2.6 0.00 0.60 0.00 98 1002.1
20260507083554 39 136 0.9 2.6 0.00 0.60 0.00 98 1002.1
20260507083054 39 157 0.0 1.7 0.00 0.60 0.00 98 1002.3
20260507082556 39 157 0.0 1.7 0.00 0.60 0.00 98 1002.5
20260507082055 39 157 0.0 1.7 0.00 0.60 0.00 98 1002.5
20260507081553 39 157 0.0 1.7 0.00 0.60 0.00 98 1002.5
20260507081055 39 157 0.0 1.7 0.00 0.60 0.00 98 1002.5
20260507080553 39 155 0.0 2.6 0.00 0.60 0.00 97 1002.5
20260507080052 39 155 0.9 2.6 0.00 0.66 0.00 97 1002.6
20260507075554 39 117 0.0 1.7 0.00 0.66 0.00 97 1002.6
20260507075050 39 146 0.9 2.6 0.00 0.66 0.00 97 1002.6
20260507074555 39 132 0.9 2.6 0.00 0.66 0.00 97 1002.7
20260507074048 39 132 0.9 1.7 0.00 0.66 0.00 97 1002.7
20260507073548 39 132 0.0 1.7 0.00 0.66 0.00 97 1002.8
20260507073048 39 132 0.9 2.6 0.00 0.66 0.00 97 1002.8
20260507072548 39 132 0.0 2.6 0.00 0.66 0.00 97 1002.7
20260507072047 39 248 0.0 1.7 0.00 0.66 0.00 97 1002.6
20260507071547 39 283 0.0 0.9 0.00 0.66 0.00 97 1002.4
20260507071047 39 283 0.0 1.7 0.00 0.66 0.00 97 1002.4
20260507070546 39 282 0.0 1.7 0.00 0.66 0.00 97 1002.4
20260507070050 39 282 0.0 1.7 0.00 0.73 0.00 97 1002.3
20260507065545 39 280 0.0 1.7 0.00 0.73 0.00 97 1002.2
20260507065045 39 134 0.0 3.5 0.00 0.73 0.00 97 1002.1
20260507064603 38 134 0.9 3.5 0.00 0.73 0.00 97 1002.1
20260507064044 38 270 0.9 2.6 0.00 0.73 0.00 97 1002.2
20260507063543 38 169 0.0 2.6 0.00 0.73 0.00 97 1002.1
20260507063047 38 103 0.9 1.7 0.00 0.73 0.00 97 1002.1
20260507062544 38 323 0.0 0.9 0.00 0.73 0.00 97 1002.0
20260507062142 38 323 0.0 0.9 0.00 0.73 0.00 97 1002.1
20260507061542 38 323 0.0 1.7 0.00 0.73 0.00 97 1002.3
20260507061041 38 323 0.0 1.7 0.00 0.73 0.00 97 1002.4
20260507060541 38 323 0.9 1.7 0.00 0.77 0.00 97 1002.4
20260507060040 38 323 0.0 0.9 0.00 0.77 0.00 97 1002.3
20260507055639 39 323 0.0 1.7 0.00 0.77 0.00 97 1002.5
20260507055038 38 323 0.0 1.7 0.00 0.77 0.00 97 1002.4
20260507054541 38 323 0.0 1.7 0.00 0.77 0.00 97 1002.4
20260507054042 38 323 0.0 1.7 0.00 0.77 0.00 97 1002.4
20260507053537 38 323 0.0 1.7 0.00 0.77 0.00 97 1002.3
20260507053037 38 323 0.0 0.0 0.00 0.77 0.00 97 1002.5
20260507052538 38 323 0.0 0.9 0.00 0.77 0.00 96 1002.6
20260507052035 38 323 0.0 0.9 0.00 0.77 0.00 96 1002.6
20260507051535 39 323 0.0 0.0 0.00 0.77 0.00 96 1002.6
20260507051034 39 323 0.0 0.9 0.00 0.77 0.00 96 1002.7
20260507050532 39 323 0.0 0.9 0.00 0.81 0.00 96 1002.7
20260507050038 39 323 0.9 0.9 0.00 0.81 0.00 96 1003.0
20260507045532 39 323 0.0 0.9 0.00 0.81 0.00 96 1003.0
20260507045029 39 323 0.0 0.9 0.00 0.81 0.00 96 1003.1
20260507044528 39 323 0.0 0.9 0.00 0.81 0.00 96 1003.0
20260507044027 40 323 0.0 0.9 0.00 0.81 0.00 96 1003.0
20260507043526 40 323 0.0 0.0 0.00 0.81 0.00 96 1003.0
20260507043026 40 323 0.0 0.0 0.00 0.81 0.00 96 1003.1
20260507042525 40 323 0.0 0.9 0.00 0.81 0.00 96 1003.1
20260507042025 40 323 0.0 0.9 0.00 0.81 0.00 96 1003.0
20260507041539 40 323 0.0 0.0 0.00 0.81 0.00 97 1003.1
20260507041024 40 323 0.0 0.0 0.00 0.81 0.00 97 1003.0
20260507040527 40 323 0.0 0.0 0.00 0.89 0.81 96 1003.1
20260507040023 40 323 0.0 0.0 0.00 0.89 0.81 96 1003.0
20260507035522 40 323 0.0 0.0 0.00 0.89 0.81 96 1003.1
20260507035022 40 323 0.0 0.0 0.00 0.89 0.81 96 1003.2
20260507034520 40 323 0.0 0.0 0.00 0.89 0.81 96 1002.9
20260507034020 41 323 0.0 0.0 0.00 0.89 0.81 96 1003.1
20260507033519 41 323 0.0 0.0 0.00 0.89 0.81 96 1003.0
20260507033019 41 323 0.0 0.0 0.00 0.89 0.81 96 1003.1
20260507032517 41 323 0.0 0.0 0.00 0.89 0.81 96 1003.2
20260507032019 41 323 0.0 0.0 0.00 0.89 0.81 96 1003.2
20260507031517 41 323 0.0 0.0 0.00 0.89 0.81 96 1003.3
20260507031017 41 323 0.0 0.0 0.00 0.89 0.81 96 1003.3
20260507030516 41 323 0.0 0.0 0.00 0.90 0.81 96 1003.3